Вернуться в каталог

PEGASUS DEB

АктивенPO
NORAD 39306·DEBRIS·🇺🇸 United States

Запущен May 19, 1994 с Vandenberg Space Force Base

Loading…

Ближайшие Пролёты (ближайшие 24 часа)

TLE

УстаревшееSource: Space-Track

Эпоха: May 14, 2026, 08:45 UTC

1 39306U 94029AER 26134.36492376  .00077458  00000-0  38663-2 0  9990
2 39306  81.7345 273.2335 0104795 181.9463 178.1374 15.12413532103804

Отслеживайте PEGASUS DEB в реальном времени с AllMySat

Download on the App Store